Content
SEND FEEDBACK

Daily
Averages
Monthly
Summary
United Kingdom

NEWCASTLE UPON TYNE, ENGLAND


Home > Europe > United Kingdom > England
Elevation: 266 feet     Latitude: 55 02N     Longitude: 001 42W

WEATHER
 
SELECT A DAY
Number of Records: 284,977;   Date Range: 7/1/96 - 7/20/14
 
SHARE

PRINT THIS DATA

[ ← Previous Day ]
WEATHER ALMANAC - NOVEMBER 21, 2013
[ Next Day → ]
[ °C ]   °F
Weather ElementAverageHighLow
Temperature41.9 °F44.6 °F (12:50 am)37.4 °F (10:20 pm)
Dewpoint40.7 °F42.8 °F (12:50 am)37.4 °F (9:20 pm)
Humidity95.6 %100 % (2:50 am)87 % (9:20 pm)
Barometer29.88 in30.06 in (10:20 pm)29.59 in (12:50 am)
Wind Speed11.5 mph19.6 mph (12:50 am)
Weather ElementAverage
Visibility5.3 mi
Wind DirectionNW (314.1 °)

Weather ElementTotal
Precipitation---
Heating Degree Days24 (Base 65)
Averaged from 41 records on November 21, 2013
WEATHER CONDITIONS BREAKOUT
WIND DIRECTION BREAKOUT
WEATHER BY HOUR - NOVEMBER 21, 2013
[ °C ]   °F
Local TimeTemperatureDewpointHumidityBarometerVisibilityWind DirectionWind SpeedGust SpeedPrecipitationEventsConditions
12:50 AM44.6 °F42.8 °F93 %29.59 in6.2 miNorth (350°)19.6 mphRainLight Rain
1:20 AM44.6 °F42.8 °F93 %29.62 in6.2 miNorth (360°)16.1 mphRainLight Rain
1:50 AM42.8 °F41.0 °F93 %29.65 in6.2 miNNE (20°)12.7 mphRainLight Rain
2:20 AM44.6 °F42.8 °F93 %29.65 in6.2 miNorth (360°)11.5 mphRainLight Rain
2:50 AM42.8 °F42.8 °F100 %29.68 in6.2 miNorth (360°)12.7 mphRainLight Rain
3:20 AM42.8 °F41.0 °F93 %29.68 in6.2 miNorth (10°)11.5 mphRainLight Rain
5:20 AM42.8 °F42.8 °F100 %29.74 in6.2 miNorth (350°)9.2 mphRainLight Rain
5:50 AM42.8 °F41.0 °F93 %29.77 in6.2 miNorth (350°)9.2 mphRainLight Rain
6:20 AM42.8 °F41.0 °F93 %29.77 in6.2 miNNW (340°)9.2 mphRainLight Rain
6:50 AM42.8 °F42.8 °F100 %29.80 in6.2 miNorth (350°)10.4 mphRainLight Rain
7:20 AM42.8 °F41.0 °F93 %29.80 in6.2 miVariable8.1 mphRainLight Rain
7:50 AM42.8 °F41.0 °F93 %29.83 in6.2 miNorth (350°)6.9 mphRainRain Showers
8:20 AM41.0 °F41.0 °F100 %29.83 in6.2 miNW (320°)6.9 mphScattered Clouds
8:50 AM41.0 °F41.0 °F100 %29.83 in6.2 miNNW (330°)8.1 mphScattered Clouds
9:20 AM42.8 °F42.8 °F100 %29.86 in6.2 miNorth (360°)13.8 mphMostly Cloudy
9:50 AM42.8 °F42.8 °F100 %29.86 in6.2 miNorth (350°)8.1 mphScattered Clouds
10:20 AM42.8 °F42.8 °F100 %29.86 in6.2 miNorth (360°)13.8 mphMostly Cloudy
10:50 AM44.6 °F42.8 °F93 %29.89 in6.2 miNorth (360°)11.5 mphScattered Clouds
11:20 AM42.8 °F41.0 °F93 %29.89 in6.2 miNorth (350°)10.4 mphRainLight Rain Showers
11:50 AM42.8 °F41.0 °F93 %29.89 in5.0 miNNW (330°)10.4 mphRainLight Rain Showers
12:20 PM42.8 °F41.0 °F93 %29.89 in5.0 miNNW (330°)10.4 mphScattered Clouds
12:50 PM42.8 °F41.0 °F93 %29.92 in5.0 miNNW (330°)10.4 mphScattered Clouds
1:20 PM42.8 °F41.0 °F93 %29.92 in5.0 miNorth (350°)13.8 mphScattered Clouds
1:50 PM42.8 °F41.0 °F93 %29.92 in5.0 miNNW (340°)17.3 mphRainLight Rain Showers
2:20 PM42.8 °F41.0 °F93 %29.92 in5.0 miNorth (360°)19.6 mphScattered Clouds
2:50 PM41.0 °F41.0 °F100 %29.92 in3.7 miNorth (360°)18.4 mphRainLight Rain Showers
3:20 PM41.0 °F41.0 °F100 %29.95 in3.7 miNorth (360°)11.5 mphRainLight Rain Showers
3:50 PM41.0 °F41.0 °F100 %29.95 in3.7 miNorth (360°)15.0 mphRainLight Rain Showers
4:20 PM41.0 °F41.0 °F100 %29.95 in4.3 miNorth (360°)12.7 mphRainLight Rain Showers
4:50 PM41.0 °F41.0 °F100 %29.98 in4.3 miNorth (350°)11.5 mphRainLight Rain Showers
5:20 PM41.0 °F39.2 °F93 %29.98 in4.3 miNorth (360°)15.0 mphRainLight Rain Showers
6:20 PM41.0 °F39.2 °F93 %30.01 in4.3 miNorth (360°)11.5 mphRainLight Rain Showers
6:50 PM41.0 °F39.2 °F93 %30.01 in4.3 miNorth (360°)10.4 mphRainLight Rain Showers
7:20 PM41.0 °F39.2 °F93 %30.01 in4.3 miNorth (350°)10.4 mphRainLight Rain Showers
7:50 PM41.0 °F39.2 °F93 %30.01 in4.3 miNorth (360°)12.7 mphRainLight Rain Showers
8:20 PM41.0 °F39.2 °F93 %30.04 in4.3 miNorth (10°)11.5 mphRainLight Rain Showers
9:20 PM41.0 °F37.4 °F87 %30.04 in4.3 miNW (320°)8.1 mphRainLight Rain
9:50 PM39.2 °F37.4 °F93 %30.04 in4.3 miNW (320°)8.1 mphRainLight Rain
10:20 PM37.4 °F37.4 °F100 %30.06 in4.3 miNNW (330°)6.9 mphRainLight Rain
10:50 PM37.4 °F37.4 °F100 %30.06 in6.2 miNW (320°)8.1 mphPartly Cloudy
11:20 PM37.4 °F37.4 °F100 %30.06 in6.2 miNNW (330°)8.1 mphPartly Cloudy
Hourly data recorded from EGNT, located miles away from Newcastle upon Tyne, England







STORIES FROM OUR PARTNERS